Simultaneous Nadir Overpasses (SNOs) Predictions

Prediction of SNOs between GOES-16 and LANDSAT-8 Satellite Orbit:

Table of predicted SNOs for the next 14.0 days since TLE Epoch: 5/6/2023
Index Date Time (GOES-16) GOES-16 Lat,Lon LANDSAT-8 Lat,Lon Distance(km) Time Diff (sec)
1 05/07/2023 03:09:00 -0.04, -75.19 0.06, -74.68 58.32 80
2 05/09/2023 02:56:47 -0.03, -75.20 0.73, -71.72 395.55 80
3 05/09/2023 15:18:01 0.03, -75.21 0.37, -76.88 189.26 80
4 05/11/2023 15:08:28 0.02, -75.23 -0.26, -73.92 148.56 80
5 05/12/2023 03:29:50 -0.02, -75.22 -0.87, -79.11 442.50 80
6 05/13/2023 14:56:14 0.01, -75.25 -0.91, -70.96 487.39 80
7 05/14/2023 03:17:36 -0.01, -75.24 -0.22, -76.15 103.37 80
8 05/16/2023 03:02:42 -0.01, -75.27 0.46, -73.19 236.90 80
9 05/16/2023 15:23:56 0.01, -75.29 0.68, -78.34 347.22 80
10 05/18/2023 15:11:41 0.01, -75.33 0.04, -75.37 6.46 80
